Погода в Малышеве

Россия / Ивановская область     57°03′42″N   41°46′23″E
темп.,
°C
ветер,
м/с
пор.,
м/с
влажн.,
%
обл.,
%
осадки,
мм/ч
давл.,
гПа
погр.,
м
11 мая, вт
вт1100:00+5св34905 0.0 102864
03:00+4св38944 0.0 1028136
06:00+6св411835 0.0 1029335
09:00+12св58550 0.0 1029596
12:00+16всв46440 0.0 1028828
15:00+18всв45480 0.0 1028866
18:00+17всв36630 0.0 1027329
21:00+12всв35800 0.0 102881
12 мая, ср
ср1200:00+11в35925 0.0 102883
03:00+11в34958 0.0 102866
06:00+12св359246 0.0 1028146
09:00+18всв477192 0.0 1027492
12:00+22в68589 0.0 10261039
15:00+24в611526 0.0 10242714
18:00+19ююв6107182 0.4 1024550
21:00+14вюв378975 1.1 1024131
13 мая, чт
чт1300:00+14юв4118984 0.0 1024408
03:00+12вюв37965 0.0 1024159
06:00+13вюв389026 0.0 1024267
09:00+18вюв5871100 0.0 1023788
12:00+21вюв695643 0.0 10211341
15:00+17юв61172100 0.1 1020911
18:00+15юв5138796 0.2 1019884
21:00+14юв41294100 0.4 1018516
14 мая, пт
пт1400:00+13ююв279899 0.5 1018256
03:00+14ююз2397100 0.6 101989
06:00+15ююз2284100 0.0 1020102
09:00+17ююв237499 0.0 1020578
12:00+20ююв2361100 0.0 10191066
15:00+22ююв235250 0.0 10191598
18:00+21юв3564100 0.0 1018344
21:00+16вюв358394 0.0 101784
15 мая, сб
сб1500:00+15вюв3888100 0.0 1016138
03:00+15вюв3995100 0.4 1015193
06:00+16юв4991100 0.0 1013269
09:00+21ююв4875100 0.0 1012461
12:00+25ююв5851100 0.0 10111347
15:00+25ю685398 0.0 10091440
18:00+19зюз478235 0.8 1010498
21:00+17ю4139390 2.6 1010468